This demonstration page uses our WeatherBlox Daily Observations layout. Learn more.

Left ArrowRight Arrow

39.92423, -83.80882

Hourly Observations for January 30, 2015

Temp ( °F °C ) Dew Point ( °F °C ) Humidity (%) Winds ( mph kmh ) Pressure ( in mb ) Visibility ( mi km ) Precip ( " mm )
12:17 am 00:17 Cloudy 32 0 28 -2 87 87 WNW 13 20 30.21 1023 8 13 0.00 0.03
12:26 am 00:26 Cloudy 32 0 28 -2 87 87 WNW 12 19 30.21 1023 7 11 0.00 0.03
12:56 am 00:56 Cloudy 31 -0.5 29 -1.6 92 92 WSW 9 15 30.17 1022 7 11 0.00 0.03
1:03 am 01:03 Cloudy with Mist and Fog 30 -1 28 -2 93 93 WSW 9 15 30.21 1023 5 8 0.00 0.00
1:28 am 01:28 Cloudy with Mist and Fog 30 -1 30 -1 100 100 W 10 17 30.21 1023 4 6 0.00 0.00
1:56 am 01:56 Cloudy 31 -0.5 30 -1.1 96 96 W 13 20 30.18 1022 7 11 0.00 0.03
2:56 am 02:56 Cloudy with Light Wintry Mix 31 -0.5 29 -1.6 92 92 W 13 20 30.19 1023 7 11 0.00 0.03
3:22 am 03:22 Cloudy with Light Snow 30 -1 28 -2 93 93 W 14 22 30.24 1024 5 8 0.00 0.03
3:34 am 03:34 Windy with Snow Likely 30 -1 28 -2 93 93 NNW 20 31 30.24 1024 1 2 0.00 0.03
3:36 am 03:36 Cloudy with Snow 30 -1 28 -2 93 93 NNW 22 35 30.24 1024 1 1 0.00 0.03
3:44 am 03:44 Cloudy with Light Snow 28 -2 27 -3 93 93 NW 15 24 30.24 1024 1 1 0.00 0.03
3:46 am 03:46 Cloudy with Light Snow 28 -2 27 -3 93 93 NW 13 20 30.24 1024 1 2 0.00 0.03
3:48 am 03:48 Cloudy with Light Snow 28 -2 27 -3 93 93 NW 14 22 30.24 1024 2 3 0.00 0.03
3:56 am 03:56 Mostly Cloudy 29 -1.6 27 -2.7 92 92 WNW 13 20 30.22 1023 7 11 0.00 0.03
4:05 am 04:05 Cloudy 28 -2 27 -3 93 93 NW 16 26 30.24 1024 8 13 0.00 0.00
4:43 am 04:43 Cloudy 28 -2 25 -4 86 86 NNW 15 24 30.30 1026 10 16 0.00 0.00
4:56 am 04:56 Cloudy 28 -2.2 24 -4.4 85 85 NNW 18 30 30.25 1025 10 16 0.00 0.00
5:06 am 05:06 Mostly Cloudy with Light Wintry Mix 28 -2 23 -5 80 80 NNW 21 33 30.33 1027 6 10 0.00 0.03
5:56 am 05:56 Windy with Snow Likely 25 -3.8 18 -7.7 75 75 NNW 28 44 30.30 1026 7 11 0.00 0.03
6:56 am 06:56 Partly Cloudy 22 -5.5 14 -10 71 71 NNW 18 30 30.35 1028 10 16 0.00 0.03
7:56 am 07:56 Sunny 19 -7.2 12 -11.1 74 74 NW 16 26 30.38 1029 9 14 0.00 0.00
8:56 am 08:56 Mostly Cloudy 20 -6.6 12 -11.1 71 71 NW 13 20 30.42 1030 9 14 0.00 0.00
9:56 am 09:56 Cloudy 22 -5.5 14 -10 71 71 NNW 16 26 30.44 1031 9 14 0.00 0.00
10:56 am 10:56 Cloudy 23 -5 13 -10.5 66 66 NNW 17 28 30.47 1032 9 14 0.00 0.03
11:56 am 11:56 Cloudy 23 -5 13 -10.5 66 66 NNW 16 26 30.48 1032 9 14 0.00 0.00
12:56 pm 12:56 Cloudy with Light Snow 24 -4.4 15 -9.4 68 68 NW 16 26 30.47 1032 8 13 0.00 0.03
1:26 pm 13:26 Cloudy 23 -5 14 -10 68 68 NNW 15 24 30.48 1032 9 14 0.00 0.03
1:56 pm 13:56 Cloudy 23 -5 14 -10 68 68 WNW 14 22 30.46 1032 9 14 0.00 0.03
2:15 pm 14:15 Mostly Cloudy 25 -4 12 -11 59 59 W 9 15 30.48 1032 9 14 0.00 0.00
2:56 pm 14:56 Partly Cloudy 25 -3.8 13 -10.5 60 60 WNW 10 17 30.46 1032 8 13 0.00 0.00
3:56 pm 15:56 Mostly Cloudy 24 -4.4 14 -10 65 65 WNW 13 20 30.48 1032 9 14 0.00 0.00
4:39 pm 16:39 Cloudy 25 -4 14 -10 63 63 WNW 10 17 30.50 1033 9 14 0.00 0.00
4:56 pm 16:56 Mostly Cloudy 23 -5 13 -10.5 66 66 NW 10 17 30.49 1032 9 14 0.00 0.00
5:10 pm 17:10 Partly Cloudy 23 -5 12 -11 63 63 W 8 13 30.50 1033 9 14 0.00 0.00
5:56 pm 17:56 Mostly Clear 20 -6.6 12 -11.1 71 71 SW 7 11 30.49 1033 9 14 0.00 0.00
6:56 pm 18:56 Clear 20 -6.6 11 -11.6 68 68 S 3 6 30.49 1033 10 16 0.00 0.00
7:56 pm 19:56 Clear 18 -7.7 13 -10.5 81 81 Calm 30.49 1033 10 16 0.00 0.00
8:56 pm 20:56 Clear 15 -9.4 12 -11.1 88 88 S 3 6 30.49 1033 9 14 0.00 0.00
9:56 pm 21:56 Clear 14 -10 11 -11.6 88 88 S 3 6 30.49 1032 9 14 0.00 0.00
10:56 pm 22:56 Clear 13 -10.5 11 -11.6 92 92 Calm 30.48 1032 9 14 0.00 0.00
11:56 pm 23:56 Clear 13 -10.5 10 -12.2 87 87 Calm 30.47 1032 9 14 0.00 0.00

Powered by AerisWeather